Time,TemperatureF,DewpointF,PressureIn,WindDirection,WindDirectionDegrees,WindSpeedMPH,WindSpeedGustMPH,Humidity,HourlyPrecipIn,Conditions,Clouds,dailyrainin,SoftwareType,DateUTC
2013-02-01 00:00:00,58.4,44.1,30.10,NNW,344,3.0,7.0,59,0.00,,---,0.00,VWS V14.01,2013-02-01 05:00:00,
2013-02-01 00:02:00,58.4,44.1,30.11,NNW,344,4.0,7.0,59,0.00,,---,0.00,VWS V14.01,2013-02-01 05:02:00,
2013-02-01 00:06:00,58.3,44.0,30.11,NNW,343,7.0,7.0,59,0.00,,---,0.00,VWS V14.01,2013-02-01 05:06:00,
2013-02-01 00:11:00,58.1,44.3,30.11,NNW,342,5.0,7.0,60,0.00,,---,0.00,VWS V14.01,2013-02-01 05:11:00,
2013-02-01 00:16:00,58.0,44.2,30.10,NNW,344,3.0,7.0,60,0.00,,---,0.00,VWS V14.01,2013-02-01 05:16:00,
2013-02-01 00:21:00,58.0,44.2,30.10,NNW,343,5.0,7.0,60,0.00,,---,0.00,VWS V14.01,2013-02-01 05:21:00,
2013-02-01 00:27:00,57.8,44.0,30.10,NNW,344,3.0,7.0,60,0.00,,---,0.00,VWS V14.01,2013-02-01 05:27:00,
2013-02-01 00:32:00,57.8,44.0,30.11,NNW,345,5.0,7.0,60,0.00,,---,0.00,VWS V14.01,2013-02-01 05:32:00,
2013-02-01 00:37:00,57.8,44.5,30.11,NNW,345,3.0,5.0,61,0.00,,---,0.00,VWS V14.01,2013-02-01 05:37:00,
2013-02-01 00:42:00,57.6,43.8,30.11,NNW,345,4.0,5.0,60,0.00,,---,0.00,VWS V14.01,2013-02-01 05:42:00,
2013-02-01 00:47:00,57.6,43.4,30.11,NNW,344,5.0,7.0,59,0.00,,---,0.00,VWS V14.01,2013-02-01 05:47:00,
2013-02-01 00:52:00,57.6,43.0,30.11,NNW,344,9.0,9.0,58,0.00,,---,0.00,VWS V14.01,2013-02-01 05:52:00,
2013-02-01 00:57:00,57.3,42.7,30.11,NNW,346,4.0,9.0,58,0.00,,---,0.00,VWS V14.01,2013-02-01 05:57:00,
2013-02-01 01:02:00,57.3,43.1,30.10,NNW,345,4.0,9.0,59,0.00,,---,0.00,VWS V14.01,2013-02-01 06:02:00,
2013-02-01 01:07:00,57.2,43.0,30.10,NNW,340,6.0,6.0,59,0.00,,---,0.00,VWS V14.01,2013-02-01 06:07:00,
2013-02-01 01:12:00,57.0,42.4,30.10,NNW,333,3.0,10.0,58,0.00,,---,0.00,VWS V14.01,2013-02-01 06:12:00,
2013-02-01 01:17:00,57.0,42.4,30.11,NNW,333,2.0,10.0,58,0.00,,---,0.00,VWS V14.01,2013-02-01 06:17:00,
2013-02-01 01:22:00,56.9,42.3,30.11,NNW,336,3.0,10.0,58,0.00,,---,0.00,VWS V14.01,2013-02-01 06:22:00,
2013-02-01 01:27:00,56.9,42.3,30.11,NNW,338,2.0,10.0,58,0.00,,---,0.00,VWS V14.01,2013-02-01 06:27:00,
2013-02-01 01:32:00,57.0,42.8,30.11,NNW,338,2.0,2.0,59,0.00,,---,0.00,VWS V14.01,2013-02-01 06:32:00,
2013-02-01 01:38:00,57.0,42.8,30.11,NNW,338,2.0,5.0,59,0.00,,---,0.00,VWS V14.01,2013-02-01 06:38:00,
2013-02-01 01:43:00,57.0,43.3,30.11,NNW,338,5.0,6.0,60,0.00,,---,0.00,VWS V14.01,2013-02-01 06:43:00,
2013-02-01 01:48:00,57.0,42.8,30.11,NNW,338,3.0,6.0,59,0.00,,---,0.00,VWS V14.01,2013-02-01 06:48:00,
2013-02-01 01:53:00,56.9,42.3,30.11,NNW,343,3.0,9.0,58,0.00,,---,0.00,VWS V14.01,2013-02-01 06:53:00,
2013-02-01 01:58:00,56.7,42.1,30.11,NNW,343,4.0,9.0,58,0.00,,---,0.00,VWS V14.01,2013-02-01 06:58:00,
2013-02-01 02:03:00,56.7,42.1,30.11,NNW,340,6.0,6.0,58,0.00,,---,0.00,VWS V14.01,2013-02-01 07:03:00,
2013-02-01 02:08:00,56.6,42.5,30.11,NNW,343,7.0,7.0,59,0.00,,---,0.00,VWS V14.01,2013-02-01 07:08:00,
2013-02-01 02:13:00,56.5,41.5,30.11,NNW,340,7.0,7.0,57,0.00,,---,0.00,VWS V14.01,2013-02-01 07:13:00,
2013-02-01 02:18:00,56.3,40.8,30.11,NNW,344,5.0,7.0,56,0.00,,---,0.00,VWS V14.01,2013-02-01 07:18:00,
2013-02-01 02:23:00,56.2,40.7,30.11,NNW,342,5.0,9.0,56,0.00,,---,0.00,VWS V14.01,2013-02-01 07:23:00,
2013-02-01 02:28:00,56.0,41.0,30.11,NNW,344,4.0,9.0,57,0.00,,---,0.00,VWS V14.01,2013-02-01 07:28:00,
2013-02-01 02:33:00,56.0,40.5,30.10,NNW,342,7.0,7.0,56,0.00,,---,0.00,VWS V14.01,2013-02-01 07:33:00,
2013-02-01 02:38:00,55.9,40.5,30.10,NNW,344,2.0,9.0,56,0.00,,---,0.00,VWS V14.01,2013-02-01 07:38:00,
2013-02-01 02:43:00,55.9,40.5,30.10,NNW,342,6.0,9.0,56,0.00,,---,0.00,VWS V14.01,2013-02-01 07:43:00,
2013-02-01 02:48:00,55.7,41.2,30.11,NNW,345,5.0,9.0,58,0.00,,---,0.00,VWS V14.01,2013-02-01 07:48:00,
2013-02-01 02:53:00,55.7,41.2,30.11,NNW,348,6.0,9.0,58,0.00,,---,0.00,VWS V14.01,2013-02-01 07:53:00,
2013-02-01 02:58:00,55.7,40.7,30.11,NNW,345,9.0,10.0,57,0.00,,---,0.00,VWS V14.01,2013-02-01 07:58:00,
2013-02-01 03:04:00,55.7,40.7,30.11,NNW,348,4.0,6.0,57,0.00,,---,0.00,VWS V14.01,2013-02-01 08:04:00,
2013-02-01 03:09:00,55.6,40.6,30.11,NNW,345,5.0,6.0,57,0.00,,---,0.00,VWS V14.01,2013-02-01 08:09:00,
2013-02-01 03:14:00,55.4,40.4,30.11,NNW,345,5.0,9.0,57,0.00,,---,0.00,VWS V14.01,2013-02-01 08:14:00,
2013-02-01 03:19:00,55.3,40.3,30.10,NNW,342,5.0,9.0,57,0.00,,---,0.00,VWS V14.01,2013-02-01 08:19:00,
2013-02-01 03:24:00,55.0,40.1,30.10,NNW,341,5.0,9.0,57,0.00,,---,0.00,VWS V14.01,2013-02-01 08:24:00,
2013-02-01 03:29:00,54.8,39.9,30.10,NNW,340,11.0,11.0,57,0.00,,---,0.00,VWS V14.01,2013-02-01 08:29:00,
2013-02-01 03:34:00,54.8,38.5,30.11,NNW,339,5.0,10.0,54,0.00,,---,0.00,VWS V14.01,2013-02-01 08:34:00,
2013-02-01 03:39:00,54.8,38.5,30.11,NNW,344,5.0,12.0,54,0.00,,---,0.00,VWS V14.01,2013-02-01 08:39:00,
2013-02-01 03:44:00,54.8,39.0,30.11,NNW,342,5.0,12.0,55,0.00,,---,0.00,VWS V14.01,2013-02-01 08:44:00,
2013-02-01 03:49:00,54.7,39.3,30.11,NNW,342,2.0,12.0,56,0.00,,---,0.00,VWS V14.01,2013-02-01 08:49:00,
2013-02-01 03:54:00,54.4,39.5,30.11,NNW,345,2.0,12.0,57,0.00,,---,0.00,VWS V14.01,2013-02-01 08:54:00,
2013-02-01 04:00:00,54.2,39.8,30.11,NNW,345,4.0,12.0,58,0.00,,---,0.00,VWS V14.01,2013-02-01 09:00:00,
2013-02-01 04:05:00,54.1,39.7,30.10,NNW,346,4.0,6.0,58,0.00,,---,0.00,VWS V14.01,2013-02-01 09:05:00,
2013-02-01 04:10:00,53.9,39.9,30.10,NNW,347,6.0,7.0,59,0.00,,---,0.00,VWS V14.01,2013-02-01 09:10:00,
2013-02-01 04:15:00,53.9,39.5,30.10,NNW,335,4.0,9.0,58,0.00,,---,0.00,VWS V14.01,2013-02-01 09:15:00,
2013-02-01 04:20:00,53.8,39.8,30.09,NNW,336,2.0,9.0,59,0.00,,---,0.00,VWS V14.01,2013-02-01 09:20:00,
2013-02-01 04:25:00,53.6,39.6,30.09,NNW,338,5.0,9.0,59,0.00,,---,0.00,VWS V14.01,2013-02-01 09:25:00,
2013-02-01 04:30:00,53.5,39.5,30.09,NNW,338,2.0,9.0,59,0.00,,---,0.00,VWS V14.01,2013-02-01 09:30:00,
2013-02-01 04:35:00,53.3,39.8,30.10,NNW,338,4.0,6.0,60,0.00,,---,0.00,VWS V14.01,2013-02-01 09:35:00,
2013-02-01 04:40:00,53.3,39.8,30.10,NNW,338,4.0,6.0,60,0.00,,---,0.00,VWS V14.01,2013-02-01 09:40:00,
2013-02-01 04:45:00,53.2,39.7,30.10,NNW,339,5.0,6.0,60,0.00,,---,0.00,VWS V14.01,2013-02-01 09:45:00,
2013-02-01 04:50:00,53.1,39.6,30.10,NNW,339,3.0,6.0,60,0.00,,---,0.00,VWS V14.01,2013-02-01 09:50:00,
2013-02-01 04:55:00,53.1,40.0,30.10,NNW,340,2.0,7.0,61,0.00,,---,0.00,VWS V14.01,2013-02-01 09:55:00,
2013-02-01 05:00:00,52.9,39.8,30.10,NNW,340,4.0,7.0,61,0.00,,---,0.00,VWS V14.01,2013-02-01 10:00:00,
2013-02-01 05:05:00,52.9,40.2,30.11,NNW,338,4.0,11.0,62,0.00,,---,0.00,VWS V14.01,2013-02-01 10:05:00,
2013-02-01 05:10:00,52.9,40.2,30.11,NNW,336,6.0,11.0,62,0.00,,---,0.00,VWS V14.01,2013-02-01 10:10:00,
2013-02-01 05:15:00,52.8,40.2,30.11,NNW,342,3.0,11.0,62,0.00,,---,0.00,VWS V14.01,2013-02-01 10:15:00,
2013-02-01 05:20:00,52.8,40.6,30.11,NNW,343,6.0,11.0,63,0.00,,---,0.00,VWS V14.01,2013-02-01 10:20:00,
2013-02-01 05:25:00,52.8,40.6,30.11,NNW,347,5.0,11.0,63,0.00,,---,0.00,VWS V14.01,2013-02-01 10:25:00,
2013-02-01 05:30:00,52.6,40.8,30.11,NNW,347,2.0,11.0,64,0.00,,---,0.00,VWS V14.01,2013-02-01 10:30:00,
2013-02-01 05:35:00,52.6,41.2,30.11,NNW,344,7.0,7.0,65,0.00,,---,0.00,VWS V14.01,2013-02-01 10:35:00,
2013-02-01 05:41:00,52.6,41.2,30.11,NNW,346,4.0,8.0,65,0.00,,---,0.00,VWS V14.01,2013-02-01 10:41:00,
2013-02-01 05:46:00,52.5,41.5,30.12,NNW,344,3.0,10.0,66,0.00,,---,0.00,VWS V14.01,2013-02-01 10:46:00,
2013-02-01 05:51:00,52.5,41.5,30.12,NNW,343,4.0,10.0,66,0.00,,---,0.00,VWS V14.01,2013-02-01 10:51:00,
2013-02-01 05:56:00,52.5,41.9,30.12,NNW,341,5.0,10.0,67,0.00,,---,0.00,VWS V14.01,2013-02-01 10:56:00,
2013-02-01 06:01:00,52.3,41.7,30.12,NNW,342,4.0,10.0,67,0.00,,---,0.00,VWS V14.01,2013-02-01 11:01:00,
2013-02-01 06:06:00,52.3,42.1,30.12,NNW,342,2.0,6.0,68,0.00,,---,0.00,VWS V14.01,2013-02-01 11:06:00,
2013-02-01 06:11:00,52.2,42.0,30.12,NNW,342,4.0,10.0,68,0.00,,---,0.00,VWS V14.01,2013-02-01 11:11:00,
2013-02-01 06:16:00,52.2,42.3,30.12,NNW,335,4.0,10.0,69,0.00,,---,0.00,VWS V14.01,2013-02-01 11:16:00,
2013-02-01 06:21:00,52.2,42.3,30.12,NNW,338,4.0,10.0,69,0.00,,---,0.00,VWS V14.01,2013-02-01 11:21:00,
2013-02-01 06:26:00,52.0,42.5,30.12,NNW,341,5.0,10.0,70,0.00,,---,0.00,VWS V14.01,2013-02-01 11:26:00,
2013-02-01 06:31:00,52.0,42.9,30.13,NNW,342,2.0,10.0,71,0.00,,---,0.00,VWS V14.01,2013-02-01 11:31:00,
2013-02-01 06:36:00,52.0,42.9,30.13,NNW,342,2.0,6.0,71,0.00,,---,0.00,VWS V14.01,2013-02-01 11:36:00,
2013-02-01 06:41:00,52.0,43.3,30.13,NNW,343,7.0,7.0,72,0.00,,---,0.00,VWS V14.01,2013-02-01 11:41:00,
2013-02-01 06:47:00,52.0,43.3,30.14,NNW,342,4.0,7.0,72,0.00,,---,0.00,VWS V14.01,2013-02-01 11:47:00,
2013-02-01 06:52:00,51.9,43.2,30.14,NNW,342,7.0,8.0,72,0.00,,---,0.00,VWS V14.01,2013-02-01 11:52:00,
2013-02-01 06:57:00,51.9,43.5,30.14,NNW,342,3.0,8.0,73,0.00,,---,0.00,VWS V14.01,2013-02-01 11:57:00,
2013-02-01 07:02:00,51.9,43.5,30.14,NNW,343,3.0,8.0,73,0.00,,---,0.00,VWS V14.01,2013-02-01 12:02:00,
2013-02-01 07:07:00,51.9,43.9,30.14,NNW,343,5.0,5.0,74,0.00,,---,0.00,VWS V14.01,2013-02-01 12:07:00,
2013-02-01 07:12:00,51.9,43.9,30.14,NNW,343,5.0,5.0,74,0.00,,---,0.00,VWS V14.01,2013-02-01 12:12:00,
2013-02-01 07:17:00,51.7,44.0,30.15,NNW,327,2.0,5.0,75,0.00,,---,0.00,VWS V14.01,2013-02-01 12:17:00,
2013-02-01 07:22:00,51.7,44.0,30.15,NNW,329,5.0,5.0,75,0.00,,---,0.00,VWS V14.01,2013-02-01 12:22:00,
2013-02-01 07:27:00,51.9,44.2,30.15,NNW,331,2.0,5.0,75,0.00,,---,0.00,VWS V14.01,2013-02-01 12:27:00,
2013-02-01 07:32:00,51.9,44.6,30.16,NNW,333,4.0,4.0,76,0.00,,---,0.00,VWS V14.01,2013-02-01 12:32:00,
2013-02-01 07:37:00,52.0,44.7,30.16,NNW,333,3.0,5.0,76,0.00,,---,0.00,VWS V14.01,2013-02-01 12:37:00,
2013-02-01 07:42:00,52.3,45.0,30.16,NNW,333,5.0,5.0,76,0.00,,---,0.00,VWS V14.01,2013-02-01 12:42:00,
2013-02-01 07:47:00,52.6,45.3,30.16,NNW,335,6.0,6.0,76,0.00,,---,0.00,VWS V14.01,2013-02-01 12:47:00,
2013-02-01 07:52:00,53.1,45.8,30.16,NNW,337,4.0,9.0,76,0.00,,---,0.00,VWS V14.01,2013-02-01 12:52:00,
2013-02-01 07:58:00,53.3,45.9,30.16,NNW,338,4.0,9.0,76,0.00,,---,0.00,VWS V14.01,2013-02-01 12:58:00,
2013-02-01 08:03:00,54.1,46.4,30.16,NNW,339,2.0,2.0,75,0.00,,---,0.00,VWS V14.01,2013-02-01 13:03:00,
2013-02-01 08:08:00,54.7,46.2,30.16,NNW,340,5.0,8.0,73,0.00,,---,0.00,VWS V14.01,2013-02-01 13:08:00,
2013-02-01 08:13:00,55.0,46.2,30.16,NNW,344,3.0,10.0,72,0.00,,---,0.00,VWS V14.01,2013-02-01 13:13:00,
2013-02-01 08:18:00,55.4,46.2,30.17,NNW,342,2.0,10.0,71,0.00,,---,0.00,VWS V14.01,2013-02-01 13:18:00,
2013-02-01 08:23:00,55.9,47.0,30.17,NNW,342,6.0,11.0,72,0.00,,---,0.00,VWS V14.01,2013-02-01 13:23:00,
2013-02-01 08:28:00,56.0,46.7,30.17,NNW,342,13.0,13.0,71,0.00,,---,0.00,VWS V14.01,2013-02-01 13:28:00,
2013-02-01 08:33:00,56.3,46.7,30.17,NNW,331,4.0,6.0,70,0.00,,---,0.00,VWS V14.01,2013-02-01 13:33:00,
2013-02-01 08:38:00,57.0,46.9,30.17,NW,324,10.0,12.0,69,0.00,,---,0.00,VWS V14.01,2013-02-01 13:38:00,
2013-02-01 08:43:00,57.3,46.8,30.17,NNW,339,1.0,12.0,68,0.00,,---,0.00,VWS V14.01,2013-02-01 13:43:00,
2013-02-01 08:48:00,58.1,47.2,30.18,NNW,333,2.0,12.0,67,0.00,,---,0.00,VWS V14.01,2013-02-01 13:48:00,
2013-02-01 08:53:00,58.6,47.3,30.18,NNW,336,6.0,12.0,66,0.00,,---,0.00,VWS V14.01,2013-02-01 13:53:00,
2013-02-01 08:58:00,59.2,47.9,30.18,NNW,330,3.0,12.0,66,0.00,,---,0.00,VWS V14.01,2013-02-01 13:58:00,
2013-02-01 09:03:00,59.9,48.1,30.19,NNW,340,6.0,6.0,65,0.00,,---,0.00,VWS V14.01,2013-02-01 14:03:00,
2013-02-01 09:08:00,59.9,47.7,30.19,NNW,334,11.0,11.0,64,0.00,,---,0.00,VWS V14.01,2013-02-01 14:08:00,
2013-02-01 09:13:00,60.5,47.9,30.19,NNW,338,2.0,11.0,63,0.00,,---,0.00,VWS V14.01,2013-02-01 14:13:00,
2013-02-01 09:19:00,61.0,48.3,30.19,NNW,334,5.0,11.0,63,0.00,,---,0.00,VWS V14.01,2013-02-01 14:19:00,
2013-02-01 09:24:00,61.8,48.7,30.19,NNW,338,5.0,11.0,62,0.00,,---,0.00,VWS V14.01,2013-02-01 14:24:00,
2013-02-01 09:29:00,62.1,49.4,30.19,NNW,336,0.0,13.0,63,0.00,,---,0.00,VWS V14.01,2013-02-01 14:29:00,
2013-02-01 09:34:00,62.6,49.0,30.20,NNW,344,3.0,5.0,61,0.00,,---,0.00,VWS V14.01,2013-02-01 14:34:00,
2013-02-01 09:39:00,62.6,49.4,30.20,NNW,334,7.0,14.0,62,0.00,,---,0.00,VWS V14.01,2013-02-01 14:39:00,
2013-02-01 09:44:00,62.9,49.7,30.20,NNW,337,5.0,14.0,62,0.00,,---,0.00,VWS V14.01,2013-02-01 14:44:00,
2013-02-01 09:49:00,63.5,50.3,30.20,NNW,342,2.0,14.0,62,0.00,,---,0.00,VWS V14.01,2013-02-01 14:49:00,
2013-02-01 09:54:00,64.0,50.3,30.20,NNW,345,3.0,14.0,61,0.00,,---,0.00,VWS V14.01,2013-02-01 14:54:00,
2013-02-01 09:59:00,64.7,50.5,30.20,NNW,346,3.0,14.0,60,0.00,,---,0.00,VWS V14.01,2013-02-01 14:59:00,
2013-02-01 10:04:00,64.5,50.8,30.21,NNW,342,5.0,10.0,61,0.00,,---,0.00,VWS V14.01,2013-02-01 15:04:00,
2013-02-01 10:09:00,65.3,50.6,30.21,North,355,2.0,10.0,59,0.00,,---,0.00,VWS V14.01,2013-02-01 15:09:00,
2013-02-01 10:14:00,65.6,51.4,30.21,NNW,338,4.0,13.0,60,0.00,,---,0.00,VWS V14.01,2013-02-01 15:14:00,
2013-02-01 10:20:00,66.0,52.6,30.20,NNW,331,7.0,13.0,62,0.00,,---,0.00,VWS V14.01,2013-02-01 15:20:00,
2013-02-01 10:25:00,66.9,52.1,30.20,NNE,31,1.0,13.0,59,0.00,,---,0.00,VWS V14.01,2013-02-01 15:25:00,
2013-02-01 10:30:00,67.3,52.5,30.20,NNW,327,9.0,13.0,59,0.00,,---,0.00,VWS V14.01,2013-02-01 15:30:00,
2013-02-01 10:35:00,67.3,53.4,30.20,NNW,335,2.0,10.0,61,0.00,,---,0.00,VWS V14.01,2013-02-01 15:35:00,
2013-02-01 10:40:00,68.6,53.2,30.20,NNW,338,3.0,10.0,58,0.00,,---,0.00,VWS V14.01,2013-02-01 15:40:00,
2013-02-01 10:45:00,68.9,53.5,30.20,NNW,329,8.0,10.0,58,0.00,,---,0.00,VWS V14.01,2013-02-01 15:45:00,
2013-02-01 10:50:00,68.9,54.0,30.20,NNW,331,4.0,10.0,59,0.00,,---,0.00,VWS V14.01,2013-02-01 15:50:00,
2013-02-01 10:55:00,68.8,53.0,30.20,North,355,12.0,12.0,57,0.00,,---,0.00,VWS V14.01,2013-02-01 15:55:00,
2013-02-01 11:00:00,68.6,53.7,30.20,NNW,329,6.0,12.0,59,0.00,,---,0.00,VWS V14.01,2013-02-01 16:00:00,
2013-02-01 11:05:00,68.8,53.9,30.20,NNW,339,10.0,11.0,59,0.00,,---,0.00,VWS V14.01,2013-02-01 16:05:00,
2013-02-01 11:10:00,69.3,53.9,30.20,NNW,332,3.0,11.0,58,0.00,,---,0.00,VWS V14.01,2013-02-01 16:10:00,
2013-02-01 11:15:00,69.8,54.4,30.20,NNW,336,5.0,11.0,58,0.00,,---,0.00,VWS V14.01,2013-02-01 16:15:00,
2013-02-01 11:20:00,69.8,54.8,30.20,NNW,335,9.0,11.0,59,0.00,,---,0.00,VWS V14.01,2013-02-01 16:20:00,
2013-02-01 11:25:00,70.3,54.8,30.20,NW,322,7.0,11.0,58,0.00,,---,0.00,VWS V14.01,2013-02-01 16:25:00,
2013-02-01 11:30:00,70.9,54.9,30.20,NNW,338,3.0,11.0,57,0.00,,---,0.00,VWS V14.01,2013-02-01 16:30:00,
2013-02-01 11:35:00,72.1,56.0,30.19,NE,47,3.0,7.0,57,0.00,,---,0.00,VWS V14.01,2013-02-01 16:35:00,
2013-02-01 11:40:00,73.0,54.4,30.19,ENE,59,5.0,13.0,52,0.00,,---,0.00,VWS V14.01,2013-02-01 16:40:00,
2013-02-01 11:45:00,72.7,55.1,30.19,NNW,340,3.0,13.0,54,0.00,,---,0.00,VWS V14.01,2013-02-01 16:45:00,
2013-02-01 11:50:00,73.2,56.6,30.19,NW,323,11.0,13.0,56,0.00,,---,0.00,VWS V14.01,2013-02-01 16:50:00,
2013-02-01 11:56:00,73.3,55.7,30.19,NNW,348,5.0,13.0,54,0.00,,---,0.00,VWS V14.01,2013-02-01 16:56:00,
2013-02-01 12:01:00,74.4,55.7,30.19,NE,40,3.0,13.0,52,0.00,,---,0.00,VWS V14.01,2013-02-01 17:01:00,
2013-02-01 12:06:00,73.9,56.2,30.19,NW,326,6.0,12.0,54,0.00,,---,0.00,VWS V14.01,2013-02-01 17:06:00,
2013-02-01 12:11:00,74.4,55.7,30.19,North,5,2.0,12.0,52,0.00,,---,0.00,VWS V14.01,2013-02-01 17:11:00,
2013-02-01 12:16:00,74.4,55.7,30.18,NNW,338,0.0,12.0,52,0.00,,---,0.00,VWS V14.01,2013-02-01 17:16:00,
2013-02-01 12:21:00,74.4,55.7,30.18,North,5,5.0,12.0,52,0.00,,---,0.00,VWS V14.01,2013-02-01 17:21:00,
2013-02-01 12:26:00,75.1,54.7,30.18,NNE,17,6.0,12.0,49,0.00,,---,0.00,VWS V14.01,2013-02-01 17:26:00,
2013-02-01 12:31:00,74.7,55.9,30.18,ENE,64,1.0,12.0,52,0.00,,---,0.00,VWS V14.01,2013-02-01 17:31:00,
2013-02-01 12:36:00,74.9,55.6,30.18,North,350,4.0,7.0,51,0.00,,---,0.00,VWS V14.01,2013-02-01 17:36:00,
2013-02-01 12:41:00,76.1,54.4,30.18,ENE,61,11.0,11.0,47,0.00,,---,0.00,VWS V14.01,2013-02-01 17:41:00,
2013-02-01 12:46:00,74.9,55.6,30.18,NNW,340,4.0,11.0,51,0.00,,---,0.00,VWS V14.01,2013-02-01 17:46:00,
2013-02-01 12:51:00,75.1,56.8,30.18,North,349,2.0,11.0,53,0.00,,---,0.00,VWS V14.01,2013-02-01 17:51:00,
2013-02-01 12:56:00,76.5,55.4,30.18,NNE,17,4.0,11.0,48,0.00,,---,0.00,VWS V14.01,2013-02-01 17:56:00,
2013-02-01 13:01:00,74.2,54.9,30.17,NNW,342,9.0,12.0,51,0.00,,---,0.00,VWS V14.01,2013-02-01 18:01:00,
2013-02-01 13:06:00,74.6,54.2,30.17,NE,39,11.0,11.0,49,0.00,,---,0.00,VWS V14.01,2013-02-01 18:06:00,
2013-02-01 13:11:00,76.0,54.3,30.17,North,350,4.0,11.0,47,0.00,,---,0.00,VWS V14.01,2013-02-01 18:11:00,
2013-02-01 13:16:00,75.3,55.4,30.16,NNW,346,5.0,11.0,50,0.00,,---,0.00,VWS V14.01,2013-02-01 18:16:00,
2013-02-01 13:21:00,73.5,55.3,30.16,North,5,5.0,11.0,53,0.00,,---,0.00,VWS V14.01,2013-02-01 18:21:00,
2013-02-01 13:26:00,74.0,54.7,30.16,North,5,4.0,11.0,51,0.00,,---,0.00,VWS V14.01,2013-02-01 18:26:00,
2013-02-01 13:31:00,73.9,55.7,30.15,NW,321,13.0,13.0,53,0.00,,---,0.00,VWS V14.01,2013-02-01 18:31:00,
2013-02-01 13:36:00,73.9,55.7,30.15,NW,309,8.0,8.0,53,0.00,,---,0.00,VWS V14.01,2013-02-01 18:36:00,
2013-02-01 13:41:00,75.3,54.8,30.15,NNW,333,1.0,8.0,49,0.00,,---,0.00,VWS V14.01,2013-02-01 18:41:00,
2013-02-01 13:47:00,75.6,55.7,30.16,NNW,336,2.0,8.0,50,0.00,,---,0.00,VWS V14.01,2013-02-01 18:47:00,
2013-02-01 13:52:00,76.3,56.3,30.16,NW,323,5.0,9.0,50,0.00,,---,0.00,VWS V14.01,2013-02-01 18:52:00,
2013-02-01 13:57:00,74.9,55.6,30.16,NE,44,1.0,9.0,51,0.00,,---,0.00,VWS V14.01,2013-02-01 18:57:00,
2013-02-01 14:02:00,73.0,54.4,30.15,NNE,20,5.0,9.0,52,0.00,,---,0.00,VWS V14.01,2013-02-01 19:02:00,
2013-02-01 14:07:00,74.0,55.3,30.15,North,355,4.0,6.0,52,0.00,,---,0.00,VWS V14.01,2013-02-01 19:07:00,
2013-02-01 14:12:00,76.0,57.1,30.15,NE,49,6.0,9.0,52,0.00,,---,0.00,VWS V14.01,2013-02-01 19:12:00,
2013-02-01 14:17:00,75.3,55.9,30.14,NNW,345,6.0,10.0,51,0.00,,---,0.00,VWS V14.01,2013-02-01 19:17:00,
2013-02-01 14:22:00,73.5,54.8,30.14,NNW,337,11.0,11.0,52,0.00,,---,0.00,VWS V14.01,2013-02-01 19:22:00,
2013-02-01 14:27:00,72.8,54.7,30.14,NE,54,1.0,11.0,53,0.00,,---,0.00,VWS V14.01,2013-02-01 19:27:00,
2013-02-01 14:32:00,73.9,54.1,30.14,ENE,62,5.0,11.0,50,0.00,,---,0.00,VWS V14.01,2013-02-01 19:32:00,
2013-02-01 14:37:00,73.9,55.2,30.14,ENE,66,1.0,9.0,52,0.00,,---,0.00,VWS V14.01,2013-02-01 19:37:00,
2013-02-01 14:42:00,75.8,55.9,30.14,NNW,332,4.0,10.0,50,0.00,,---,0.00,VWS V14.01,2013-02-01 19:42:00,
2013-02-01 14:47:00,74.6,55.3,30.14,North,350,2.0,12.0,51,0.00,,---,0.00,VWS V14.01,2013-02-01 19:47:00,
2013-02-01 14:52:00,73.2,54.5,30.14,North,350,5.0,12.0,52,0.00,,---,0.00,VWS V14.01,2013-02-01 19:52:00,
2013-02-01 14:57:00,74.6,55.3,30.14,ENE,64,10.0,12.0,51,0.00,,---,0.00,VWS V14.01,2013-02-01 19:57:00,
2013-02-01 15:02:00,74.6,55.3,30.14,North,355,6.0,6.0,51,0.00,,---,0.00,VWS V14.01,2013-02-01 20:02:00,
2013-02-01 15:07:00,73.2,55.6,30.14,NE,53,6.0,6.0,54,0.00,,---,0.00,VWS V14.01,2013-02-01 20:07:00,
2013-02-01 15:12:00,72.7,56.1,30.14,NE,39,4.0,6.0,56,0.00,,---,0.00,VWS V14.01,2013-02-01 20:12:00,
2013-02-01 15:17:00,74.7,55.4,30.14,North,355,7.0,8.0,51,0.00,,---,0.00,VWS V14.01,2013-02-01 20:17:00,
2013-02-01 15:22:00,74.7,54.8,30.14,NNE,25,3.0,12.0,50,0.00,,---,0.00,VWS V14.01,2013-02-01 20:22:00,
2013-02-01 15:27:00,73.0,54.4,30.14,North,355,4.0,12.0,52,0.00,,---,0.00,VWS V14.01,2013-02-01 20:27:00,
2013-02-01 15:33:00,73.2,55.1,30.14,NNE,23,2.0,2.0,53,0.00,,---,0.00,VWS V14.01,2013-02-01 20:33:00,
2013-02-01 15:38:00,73.7,55.5,30.14,NNE,24,3.0,5.0,53,0.00,,---,0.00,VWS V14.01,2013-02-01 20:38:00,
2013-02-01 15:43:00,74.6,55.3,30.14,NNE,15,5.0,10.0,51,0.00,,---,0.00,VWS V14.01,2013-02-01 20:43:00,
2013-02-01 15:48:00,73.0,54.9,30.14,North,355,3.0,10.0,53,0.00,,---,0.00,VWS V14.01,2013-02-01 20:48:00,
2013-02-01 15:53:00,72.8,55.2,30.14,NNW,346,2.0,10.0,54,0.00,,---,0.00,VWS V14.01,2013-02-01 20:53:00,
2013-02-01 15:58:00,73.9,55.2,30.14,NE,34,4.0,10.0,52,0.00,,---,0.00,VWS V14.01,2013-02-01 20:58:00,
2013-02-01 16:03:00,74.4,55.7,30.14,NNW,341,3.0,3.0,52,0.00,,---,0.00,VWS V14.01,2013-02-01 21:03:00,
2013-02-01 16:08:00,74.2,54.9,30.14,ENE,70,4.0,11.0,51,0.00,,---,0.00,VWS V14.01,2013-02-01 21:08:00,
2013-02-01 16:13:00,72.8,54.7,30.14,North,5,2.0,11.0,53,0.00,,---,0.00,VWS V14.01,2013-02-01 21:13:00,
2013-02-01 16:18:00,71.8,54.3,30.14,NE,55,6.0,11.0,54,0.00,,---,0.00,VWS V14.01,2013-02-01 21:18:00,
2013-02-01 16:23:00,71.8,53.2,30.14,ENE,63,5.0,11.0,52,0.00,,---,0.00,VWS V14.01,2013-02-01 21:23:00,
2013-02-01 16:28:00,72.1,53.5,30.14,NNE,28,5.0,11.0,52,0.00,,---,0.00,VWS V14.01,2013-02-01 21:28:00,
2013-02-01 16:33:00,71.6,54.1,30.14,NE,42,4.0,4.0,54,0.00,,---,0.00,VWS V14.01,2013-02-01 21:33:00,
2013-02-01 16:38:00,70.9,53.4,30.14,North,5,3.0,10.0,54,0.00,,---,0.00,VWS V14.01,2013-02-01 21:38:00,
2013-02-01 16:43:00,70.6,53.2,30.14,NNE,31,2.0,10.0,54,0.00,,---,0.00,VWS V14.01,2013-02-01 21:43:00,
2013-02-01 16:49:00,70.3,52.9,30.14,NE,36,2.0,10.0,54,0.00,,---,0.00,VWS V14.01,2013-02-01 21:49:00,
2013-02-01 16:54:00,70.3,53.4,30.14,NNE,17,3.0,10.0,55,0.00,,---,0.00,VWS V14.01,2013-02-01 21:54:00,
2013-02-01 16:59:00,70.4,53.5,30.14,NNE,19,5.0,10.0,55,0.00,,---,0.00,VWS V14.01,2013-02-01 21:59:00,
2013-02-01 17:04:00,70.4,54.0,30.15,NE,37,6.0,6.0,56,0.00,,---,0.00,VWS V14.01,2013-02-01 22:04:00,
2013-02-01 17:09:00,70.4,54.5,30.15,NNE,25,4.0,16.0,57,0.00,,---,0.00,VWS V14.01,2013-02-01 22:09:00,
2013-02-01 17:14:00,70.1,54.2,30.15,ENE,73,13.0,16.0,57,0.00,,---,0.00,VWS V14.01,2013-02-01 22:14:00,
2013-02-01 17:19:00,70.1,54.7,30.15,NNE,31,3.0,16.0,58,0.00,,---,0.00,VWS V14.01,2013-02-01 22:19:00,
2013-02-01 17:24:00,69.9,54.0,30.15,NNE,15,3.0,16.0,57,0.00,,---,0.00,VWS V14.01,2013-02-01 22:24:00,
2013-02-01 17:29:00,69.8,54.4,30.15,East,80,10.0,16.0,58,0.00,,---,0.00,VWS V14.01,2013-02-01 22:29:00,
2013-02-01 17:34:00,69.6,54.7,30.16,North,355,2.0,3.0,59,0.00,,---,0.00,VWS V14.01,2013-02-01 22:34:00,
2013-02-01 17:39:00,69.3,54.4,30.16,NNE,27,2.0,6.0,59,0.00,,---,0.00,VWS V14.01,2013-02-01 22:39:00,
2013-02-01 17:44:00,68.8,54.4,30.16,North,360,5.0,6.0,60,0.00,,---,0.00,VWS V14.01,2013-02-01 22:44:00,
2013-02-01 17:49:00,68.4,54.4,30.16,North,355,3.0,6.0,61,0.00,,---,0.00,VWS V14.01,2013-02-01 22:49:00,
2013-02-01 17:54:00,68.1,54.6,30.16,North,355,5.0,6.0,62,0.00,,---,0.00,VWS V14.01,2013-02-01 22:54:00,
2013-02-01 17:59:00,67.9,54.8,30.16,North,351,3.0,6.0,63,0.00,,---,0.00,VWS V14.01,2013-02-01 22:59:00,
2013-02-01 18:04:00,67.6,55.0,30.16,North,350,4.0,5.0,64,0.00,,---,0.00,VWS V14.01,2013-02-01 23:04:00,
2013-02-01 18:09:00,67.4,55.2,30.16,NNW,346,2.0,5.0,65,0.00,,---,0.00,VWS V14.01,2013-02-01 23:09:00,
2013-02-01 18:14:00,67.1,55.4,30.16,NNW,346,3.0,5.0,66,0.00,,---,0.00,VWS V14.01,2013-02-01 23:14:00,
2013-02-01 18:19:00,66.8,55.1,30.16,NNW,346,0.0,5.0,66,0.00,,---,0.00,VWS V14.01,2013-02-01 23:19:00,
2013-02-01 18:24:00,66.6,55.3,30.16,NNW,346,4.0,5.0,67,0.00,,---,0.00,VWS V14.01,2013-02-01 23:24:00,
2013-02-01 18:30:00,66.4,55.1,30.16,NNW,346,3.0,5.0,67,0.00,,---,0.00,VWS V14.01,2013-02-01 23:30:00,
2013-02-01 18:35:00,66.3,55.4,30.16,NNW,344,2.0,4.0,68,0.00,,---,0.00,VWS V14.01,2013-02-01 23:35:00,
2013-02-01 18:40:00,66.0,55.5,30.16,NNW,346,5.0,9.0,69,0.00,,---,0.00,VWS V14.01,2013-02-01 23:40:00,
2013-02-01 18:45:00,65.6,55.2,30.16,NNW,346,3.0,9.0,69,0.00,,---,0.00,VWS V14.01,2013-02-01 23:45:00,
2013-02-01 18:50:00,65.5,55.1,30.17,NNW,343,3.0,9.0,69,0.00,,---,0.00,VWS V14.01,2013-02-01 23:50:00,
2013-02-01 18:55:00,65.2,55.2,30.17,NNW,342,5.0,9.0,70,0.00,,---,0.00,VWS V14.01,2013-02-01 23:55:00,
2013-02-01 19:00:00,65.0,55.0,30.17,NNW,334,3.0,10.0,70,0.00,,---,0.00,VWS V14.01,2013-02-02 00:00:00,
2013-02-01 19:05:00,64.8,55.2,30.16,NNW,342,4.0,7.0,71,0.00,,---,0.00,VWS V14.01,2013-02-02 00:05:00,
2013-02-01 19:10:00,64.7,55.1,30.16,NNW,345,2.0,7.0,71,0.00,,---,0.00,VWS V14.01,2013-02-02 00:10:00,
2013-02-01 19:15:00,64.5,54.9,30.16,NNW,348,1.0,7.0,71,0.00,,---,0.00,VWS V14.01,2013-02-02 00:15:00,
2013-02-01 19:20:00,64.3,55.1,30.17,NNW,348,3.0,7.0,72,0.00,,---,0.00,VWS V14.01,2013-02-02 00:20:00,
2013-02-01 19:25:00,64.0,55.2,30.17,North,349,2.0,7.0,73,0.00,,---,0.00,VWS V14.01,2013-02-02 00:25:00,
2013-02-01 19:30:00,63.9,55.5,30.17,NNW,348,3.0,7.0,74,0.00,,---,0.00,VWS V14.01,2013-02-02 00:30:00,
2013-02-01 19:35:00,63.5,55.4,30.17,NNW,347,5.0,5.0,75,0.00,,---,0.00,VWS V14.01,2013-02-02 00:35:00,
2013-02-01 19:40:00,63.4,55.3,30.17,NNW,347,2.0,5.0,75,0.00,,---,0.00,VWS V14.01,2013-02-02 00:40:00,
2013-02-01 19:45:00,63.4,55.3,30.17,NNW,346,3.0,6.0,75,0.00,,---,0.00,VWS V14.01,2013-02-02 00:45:00,
2013-02-01 19:50:00,63.2,55.2,30.17,NNW,345,6.0,6.0,75,0.00,,---,0.00,VWS V14.01,2013-02-02 00:50:00,
2013-02-01 19:55:00,63.2,55.2,30.17,North,355,4.0,10.0,75,0.00,,---,0.00,VWS V14.01,2013-02-02 00:55:00,
2013-02-01 20:00:00,63.1,55.1,30.17,North,355,3.0,10.0,75,0.00,,---,0.00,VWS V14.01,2013-02-02 01:00:00,
2013-02-01 20:05:00,62.9,54.9,30.17,NNW,345,3.0,5.0,75,0.00,,---,0.00,VWS V14.01,2013-02-02 01:05:00,
2013-02-01 20:11:00,62.7,54.7,30.17,NNW,344,2.0,6.0,75,0.00,,---,0.00,VWS V14.01,2013-02-02 01:11:00,
2013-02-01 20:16:00,62.4,54.8,30.17,NNW,346,2.0,6.0,76,0.00,,---,0.00,VWS V14.01,2013-02-02 01:16:00,
2013-02-01 20:21:00,62.3,54.7,30.17,NNW,346,6.0,6.0,76,0.00,,---,0.00,VWS V14.01,2013-02-02 01:21:00,
2013-02-01 20:26:00,62.1,54.5,30.17,NNW,341,1.0,7.0,76,0.00,,---,0.00,VWS V14.01,2013-02-02 01:26:00,
2013-02-01 20:31:00,62.0,54.4,30.17,NNW,341,2.0,7.0,76,0.00,,---,0.00,VWS V14.01,2013-02-02 01:31:00,
2013-02-01 20:36:00,61.8,54.2,30.17,NNW,341,4.0,6.0,76,0.00,,---,0.00,VWS V14.01,2013-02-02 01:36:00,
2013-02-01 20:41:00,61.6,54.0,30.17,NNW,340,3.0,6.0,76,0.00,,---,0.00,VWS V14.01,2013-02-02 01:41:00,
2013-02-01 20:46:00,61.5,53.9,30.17,NNW,339,5.0,6.0,76,0.00,,---,0.00,VWS V14.01,2013-02-02 01:46:00,
2013-02-01 20:51:00,61.5,53.5,30.17,NNW,342,1.0,6.0,75,0.00,,---,0.00,VWS V14.01,2013-02-02 01:51:00,
2013-02-01 20:56:00,61.3,53.3,30.17,NNW,340,0.0,6.0,75,0.00,,---,0.00,VWS V14.01,2013-02-02 01:56:00,
2013-02-01 21:01:00,61.3,53.7,30.17,NNW,340,4.0,6.0,76,0.00,,---,0.00,VWS V14.01,2013-02-02 02:01:00,
2013-02-01 21:06:00,61.2,53.6,30.17,NNW,340,5.0,5.0,76,0.00,,---,0.00,VWS V14.01,2013-02-02 02:06:00,
2013-02-01 21:11:00,61.0,53.0,30.17,NNW,340,5.0,5.0,75,0.00,,---,0.00,VWS V14.01,2013-02-02 02:11:00,
2013-02-01 21:16:00,60.7,53.1,30.17,NNW,340,2.0,5.0,76,0.00,,---,0.00,VWS V14.01,2013-02-02 02:16:00,
2013-02-01 21:21:00,60.5,52.5,30.17,NNW,342,3.0,5.0,75,0.00,,---,0.00,VWS V14.01,2013-02-02 02:21:00,
2013-02-01 21:26:00,60.5,52.5,30.17,NNW,342,4.0,7.0,75,0.00,,---,0.00,VWS V14.01,2013-02-02 02:26:00,
2013-02-01 21:31:00,60.4,52.5,30.17,NNW,342,3.0,7.0,75,0.00,,---,0.00,VWS V14.01,2013-02-02 02:31:00,
2013-02-01 21:37:00,60.2,52.3,30.17,NNW,342,2.0,5.0,75,0.00,,---,0.00,VWS V14.01,2013-02-02 02:37:00,
2013-02-01 21:42:00,60.1,52.2,30.17,NNW,342,3.0,6.0,75,0.00,,---,0.00,VWS V14.01,2013-02-02 02:42:00,
2013-02-01 21:47:00,60.1,52.2,30.17,NNW,342,1.0,6.0,75,0.00,,---,0.00,VWS V14.01,2013-02-02 02:47:00,
2013-02-01 21:52:00,59.9,52.0,30.17,NNW,342,2.0,6.0,75,0.00,,---,0.00,VWS V14.01,2013-02-02 02:52:00,
2013-02-01 21:57:00,59.9,52.0,30.17,NNW,342,2.0,6.0,75,0.00,,---,0.00,VWS V14.01,2013-02-02 02:57:00,
2013-02-01 22:02:00,59.8,51.9,30.17,NNW,342,0.0,6.0,75,0.00,,---,0.00,VWS V14.01,2013-02-02 03:02:00,
2013-02-01 22:07:00,59.6,51.7,30.17,NNW,342,1.0,3.0,75,0.00,,---,0.00,VWS V14.01,2013-02-02 03:07:00,
2013-02-01 22:12:00,59.6,51.7,30.17,NNW,342,2.0,3.0,75,0.00,,---,0.00,VWS V14.01,2013-02-02 03:12:00,
2013-02-01 22:17:00,59.5,51.6,30.17,NNW,342,4.0,4.0,75,0.00,,---,0.00,VWS V14.01,2013-02-02 03:17:00,
2013-02-01 22:22:00,59.3,51.4,30.17,NNW,342,1.0,4.0,75,0.00,,---,0.00,VWS V14.01,2013-02-02 03:22:00,
2013-02-01 22:27:00,59.2,51.3,30.17,NNW,342,3.0,4.0,75,0.00,,---,0.00,VWS V14.01,2013-02-02 03:27:00,
2013-02-01 22:32:00,59.2,51.3,30.18,NNW,342,4.0,4.0,75,0.00,,---,0.00,VWS V14.01,2013-02-02 03:32:00,
2013-02-01 22:38:00,59.2,51.7,30.18,NNW,342,0.0,5.0,76,0.00,,---,0.00,VWS V14.01,2013-02-02 03:38:00,
2013-02-01 22:43:00,59.2,51.3,30.18,NNW,342,0.0,5.0,75,0.00,,---,0.00,VWS V14.01,2013-02-02 03:43:00,
2013-02-01 22:48:00,59.0,51.1,30.17,NNW,342,2.0,5.0,75,0.00,,---,0.00,VWS V14.01,2013-02-02 03:48:00,
2013-02-01 22:53:00,59.0,51.5,30.17,NNW,342,1.0,5.0,76,0.00,,---,0.00,VWS V14.01,2013-02-02 03:53:00,
2013-02-01 22:58:00,58.9,51.4,30.17,NNW,342,3.0,5.0,76,0.00,,---,0.00,VWS V14.01,2013-02-02 03:58:00,
2013-02-01 23:03:00,58.7,51.5,30.17,NNW,342,3.0,3.0,77,0.00,,---,0.00,VWS V14.01,2013-02-02 04:03:00,
2013-02-01 23:08:00,58.6,51.4,30.17,NNW,344,4.0,6.0,77,0.00,,---,0.00,VWS V14.01,2013-02-02 04:08:00,
2013-02-01 23:13:00,58.6,51.4,30.17,NNW,344,2.0,6.0,77,0.00,,---,0.00,VWS V14.01,2013-02-02 04:13:00,
2013-02-01 23:18:00,58.6,51.4,30.17,NNW,344,4.0,6.0,77,0.00,,---,0.00,VWS V14.01,2013-02-02 04:18:00,
2013-02-01 23:23:00,58.6,51.4,30.17,NNW,344,3.0,6.0,77,0.00,,---,0.00,VWS V14.01,2013-02-02 04:23:00,
2013-02-01 23:28:00,58.4,51.2,30.17,NNW,344,2.0,6.0,77,0.00,,---,0.00,VWS V14.01,2013-02-02 04:28:00,
2013-02-01 23:33:00,58.4,51.2,30.17,NNW,344,1.0,2.0,77,0.00,,---,0.00,VWS V14.01,2013-02-02 04:33:00,
2013-02-01 23:39:00,58.3,51.5,30.17,NNW,344,0.0,3.0,78,0.00,,---,0.00,VWS V14.01,2013-02-02 04:39:00,
2013-02-01 23:44:00,58.3,51.1,30.17,NNW,344,0.0,3.0,77,0.00,,---,0.00,VWS V14.01,2013-02-02 04:44:00,
2013-02-01 23:49:00,58.1,51.3,30.17,NNW,344,2.0,3.0,78,0.00,,---,0.00,VWS V14.01,2013-02-02 04:49:00,
2013-02-01 23:54:00,58.1,51.3,30.17,NNW,344,2.0,4.0,78,0.00,,---,0.00,VWS V14.01,2013-02-02 04:54:00,
2013-02-01 23:59:00,58.1,51.3,30.17,NNW,344,5.0,5.0,78,0.00,,---,0.00,VWS V14.01,2013-02-02 04:59:00,